Location: Unspecified
(40.8819°N, 0.0000°E)
Time: 22:00:24
(UTC+00:00)

VELOX 1 - Visible Passes

Search period start: 24 April 2024 00:00
Search period end: 04 May 2024 00:00
Orbit: 607 x 618 km, 98.3° (Epoch: 24 April)

Date Brightness Start Highest point End Pass type
(mag) Time Alt. Az. Time Alt. Az. Time Alt. Az.
24 Apr ? 20:37:45 10° N 20:41:47 39° WNW 20:45:48 10° SW visible
25 Apr ? 19:17:10 10° NE 19:20:48 26° E 19:24:24 10° SSE visible
25 Apr ? 20:52:58 10° N 20:56:39 28° WNW 21:00:18 10° SW visible
26 Apr ? 19:31:48 10° NNE 19:35:49 37° E 19:39:49 10° SSE visible
26 Apr ? 21:08:19 10° NNW 21:11:27 20° WNW 21:14:35 10° WSW visible
27 Apr ? 19:46:32 10° NNE 19:50:47 54° E 19:55:00 10° S visible
27 Apr ? 21:23:54 10° NNW 21:26:13 14° WNW 21:28:32 10° W visible
28 Apr ? 20:01:21 10° NNE 20:05:43 80° ESE 20:10:00 10° S visible
28 Apr ? 21:40:34 10° NW 21:40:56 10° WNW 21:41:18 10° WNW visible
29 Apr ? 20:16:15 10° N 20:20:34 70° WNW 20:24:51 10° SSW visible
30 Apr ? 20:31:13 10° N 20:35:24 48° WNW 20:39:32 10° SW visible
01 May ? 20:46:17 10° N 20:50:10 33° WNW 20:54:02 10° SW visible
02 May ? 19:25:20 10° NE 19:29:09 30° E 19:32:56 10° SSE visible
02 May ? 21:01:26 10° NNW 21:04:54 24° WNW 21:08:20 10° WSW visible
03 May ? 19:39:53 10° NNE 19:44:02 43° E 19:48:08 10° S visible
03 May ? 21:16:45 10° NNW 21:19:34 17° WNW 21:22:23 10° WSW visible
